TimeCST,TemperatureF,Dew PointF,Humidity,Sea Level PressureIn,VisibilityMPH,Wind Direction,Wind SpeedMPH,Gust SpeedMPH,PrecipitationIn,Events,Conditions,WindDirDegrees,DateUTC
12:15 AM,32.0,32.0,100,29.92,1.8,Calm,Calm,-,N/A,,Overcast,0,2012-11-07 06:15:00
12:35 AM,32.0,32.0,100,29.93,1.0,Calm,Calm,-,N/A,,Overcast,0,2012-11-07 06:35:00
12:55 AM,32.0,32.0,100,29.93,0.8,Calm,Calm,-,N/A,,Overcast,0,2012-11-07 06:55:00
1:15 AM,32.0,32.0,100,29.94,0.5,Calm,Calm,-,N/A,Fog,Fog,0,2012-11-07 07:15:00
1:35 AM,32.0,32.0,100,29.95,0.5,Calm,Calm,-,N/A,Fog,Fog,0,2012-11-07 07:35:00
1:55 AM,32.0,32.0,100,29.96,0.8,Calm,Calm,-,N/A,,Overcast,0,2012-11-07 07:55:00
2:15 AM,32.0,32.0,100,29.96,1.5,Calm,Calm,-,N/A,,Overcast,0,2012-11-07 08:15:00
2:35 AM,32.0,32.0,100,29.97,1.8,Calm,Calm,-,N/A,,Overcast,0,2012-11-07 08:35:00
2:55 AM,32.0,32.0,100,29.97,2.5,Calm,Calm,-,N/A,,Overcast,0,2012-11-07 08:55:00
3:15 AM,32.0,32.0,100,29.97,2.5,Calm,Calm,-,N/A,,Overcast,0,2012-11-07 09:15:00
3:35 AM,32.0,32.0,100,29.98,2.5,Calm,Calm,-,N/A,,Overcast,0,2012-11-07 09:35:00
7:15 AM,32.0,32.0,100,30.05,2.5,Calm,Calm,-,N/A,,Overcast,0,2012-11-07 13:15:00
7:35 AM,32.0,32.0,100,30.06,2.5,Calm,Calm,-,N/A,,Overcast,0,2012-11-07 13:35:00
7:55 AM,32.0,32.0,100,30.06,3.0,Calm,Calm,-,N/A,,Overcast,0,2012-11-07 13:55:00
8:15 AM,32.0,32.0,100,30.07,3.0,Calm,Calm,-,N/A,,Overcast,0,2012-11-07 14:15:00
8:35 AM,33.8,33.8,100,30.07,4.0,Calm,Calm,-,N/A,,Overcast,0,2012-11-07 14:35:00
8:55 AM,33.8,33.8,100,30.07,5.0,Calm,Calm,-,N/A,,Overcast,0,2012-11-07 14:55:00
9:15 AM,33.8,33.8,100,30.07,10.0,Calm,Calm,-,N/A,,Overcast,0,2012-11-07 15:15:00
9:35 AM,35.6,32.0,87,30.07,10.0,Calm,Calm,-,N/A,,Overcast,0,2012-11-07 15:35:00
9:55 AM,35.6,32.0,87,30.08,10.0,Calm,Calm,-,N/A,,Overcast,0,2012-11-07 15:55:00
10:15 AM,35.6,32.0,87,30.09,10.0,Calm,Calm,-,N/A,,Overcast,0,2012-11-07 16:15:00
10:35 AM,35.6,32.0,87,30.09,10.0,Calm,Calm,-,N/A,,Overcast,0,2012-11-07 16:35:00
10:55 AM,35.6,32.0,87,30.09,10.0,Calm,Calm,-,N/A,,Overcast,0,2012-11-07 16:55:00
11:15 AM,35.6,33.8,93,30.09,10.0,Calm,Calm,-,N/A,,Overcast,0,2012-11-07 17:15:00
11:35 AM,35.6,33.8,93,30.08,10.0,Calm,Calm,-,N/A,,Overcast,0,2012-11-07 17:35:00
11:55 AM,35.6,33.8,93,30.08,10.0,Calm,Calm,-,N/A,,Overcast,0,2012-11-07 17:55:00
12:15 PM,35.6,33.8,93,30.08,10.0,Calm,Calm,-,N/A,,Overcast,0,2012-11-07 18:15:00
12:35 PM,35.6,33.8,93,30.07,10.0,Calm,Calm,-,N/A,,Overcast,0,2012-11-07 18:35:00
12:55 PM,37.4,33.8,87,30.07,10.0,Calm,Calm,-,N/A,,Overcast,0,2012-11-07 18:55:00
1:15 PM,37.4,33.8,87,30.07,10.0,Calm,Calm,-,N/A,,Overcast,0,2012-11-07 19:15:00
1:35 PM,37.4,33.8,87,30.07,10.0,Calm,Calm,-,N/A,,Overcast,0,2012-11-07 19:35:00
1:55 PM,37.4,33.8,87,30.07,10.0,Calm,Calm,-,N/A,,Overcast,0,2012-11-07 19:55:00
2:15 PM,37.4,33.8,87,30.07,10.0,Calm,Calm,-,N/A,,Overcast,0,2012-11-07 20:15:00
2:35 PM,37.4,33.8,87,30.07,10.0,WSW,3.5,-,N/A,,Overcast,250,2012-11-07 20:35:00
2:55 PM,37.4,33.8,87,30.07,10.0,Calm,Calm,-,N/A,,Overcast,0,2012-11-07 20:55:00
3:15 PM,37.4,33.8,87,30.08,10.0,West,4.6,-,N/A,,Overcast,280,2012-11-07 21:15:00
3:35 PM,37.4,33.8,87,30.08,10.0,NW,4.6,-,N/A,,Overcast,310,2012-11-07 21:35:00
3:55 PM,35.6,33.8,93,30.09,10.0,WNW,3.5,-,N/A,,Overcast,290,2012-11-07 21:55:00
4:15 PM,35.6,33.8,93,30.09,10.0,Calm,Calm,-,N/A,,Overcast,0,2012-11-07 22:15:00
4:35 PM,35.6,33.8,93,30.09,10.0,Calm,Calm,-,N/A,,Overcast,0,2012-11-07 22:35:00
4:55 PM,35.6,33.8,93,30.10,10.0,Calm,Calm,-,N/A,,Overcast,0,2012-11-07 22:55:00
5:15 PM,35.6,33.8,93,30.10,10.0,Calm,Calm,-,N/A,,Overcast,0,2012-11-07 23:15:00
5:35 PM,35.6,32.0,87,30.10,10.0,Calm,Calm,-,N/A,,Overcast,0,2012-11-07 23:35:00
5:55 PM,35.6,33.8,93,30.10,10.0,Calm,Calm,-,N/A,,Overcast,0,2012-11-07 23:55:00
6:15 PM,33.8,33.8,100,30.10,10.0,Calm,Calm,-,N/A,,Overcast,0,2012-11-08 00:15:00
6:35 PM,35.6,33.8,93,30.10,10.0,Calm,Calm,-,N/A,,Overcast,0,2012-11-08 00:35:00
6:55 PM,33.8,32.0,93,30.10,10.0,Calm,Calm,-,N/A,,Overcast,0,2012-11-08 00:55:00
7:15 PM,33.8,32.0,93,30.10,10.0,Calm,Calm,-,N/A,,Overcast,0,2012-11-08 01:15:00
7:35 PM,33.8,33.8,100,30.10,7.0,Calm,Calm,-,N/A,,Overcast,0,2012-11-08 01:35:00
7:55 PM,33.8,32.0,93,30.10,7.0,Calm,Calm,-,N/A,,Overcast,0,2012-11-08 01:55:00
8:15 PM,33.8,33.8,100,30.10,7.0,Calm,Calm,-,N/A,,Overcast,0,2012-11-08 02:15:00
8:35 PM,33.8,32.0,93,30.11,7.0,Calm,Calm,-,N/A,,Overcast,0,2012-11-08 02:35:00
8:55 PM,33.8,33.8,100,30.11,10.0,Calm,Calm,-,N/A,,Overcast,0,2012-11-08 02:55:00
9:15 PM,33.8,32.0,93,30.11,10.0,Calm,Calm,-,N/A,,Overcast,0,2012-11-08 03:15:00
9:35 PM,33.8,32.0,93,30.10,7.0,Calm,Calm,-,N/A,,Overcast,0,2012-11-08 03:35:00
9:55 PM,33.8,32.0,93,30.10,7.0,Calm,Calm,-,N/A,,Overcast,0,2012-11-08 03:55:00
10:15 PM,33.8,32.0,93,30.11,7.0,Calm,Calm,-,N/A,,Overcast,0,2012-11-08 04:15:00
10:35 PM,33.8,32.0,93,30.10,10.0,Calm,Calm,-,N/A,,Overcast,0,2012-11-08 04:35:00
10:55 PM,33.8,32.0,93,30.10,10.0,Calm,Calm,-,N/A,,Overcast,0,2012-11-08 04:55:00
11:15 PM,35.6,32.0,87,30.10,10.0,SW,4.6,-,N/A,,Overcast,220,2012-11-08 05:15:00
11:55 PM,35.6,33.8,93,30.10,7.0,Calm,Calm,-,N/A,,Overcast,0,2012-11-08 05:55:00